Chino Valley, AZ

12:48 PM MST on December 25, 2014 (GMT -0700)
Chino Valley 1 North | Change Station
CLOSE
Current Station
Personal Weather Station
Location: Chino Valley, AZ
Elevation: 4734 ft
Nearby Weather Stations

Elev 4734 ft 34.75 °N, 112.46 °W | Updated 6 seconds ago

Mostly Cloudy
Mostly Cloudy
46.4 °F
Feels Like 41 °F
N
12.0
Wind Variable Wind from West
Gusts 30.0 mph

Today
High -- | Low -- °F
--% Chance of Precip.
Yesterday
High -- | Low -- °F
Precip. -- in
7:35 AM 5:24 PM
Waxing Crescent, 18% visible
Pressure 29.65 in
Visibility 10.0 miles
Clouds Scattered Clouds 8500 ft
Windchill 41 °F
Dew Point 24 °F
Humidity 41%
Rainfall 0.00 in
Snow Depth Not available.
UV 3 out of 12
Pollen 4.10 out of 12
Air Quality Not available.
Flu Activity Not available.
METAR KPRC 251853Z 26014KT 10SM SCT085 07/M06 A2973 RMK AO2 SLP040 T00671061

More Conditions Fewer Conditions

Pressure 29.65 in
Visibility 10.0 miles
Clouds Scattered Clouds 8500 ft
Windchill 41 °F
Dew Point 24 °F
Humidity 41%
Rainfall 0.00 in
Snow Depth Not available.
UV 3 out of 12
Pollen 4.10 out of 12
Air Quality Not available.
Flu Activity Not available.
METAR KPRC 251853Z 26014KT 10SM SCT085 07/M06 A2973 RMK AO2 SLP040 T00671061

More Conditions Fewer Conditions

10-Day Weather Forecast

Almanac

Astronomy

Dec. 25, 2014 Rise Set
Actual Time
Civil Twilight
Nautical Twilight
Astronomical Twilight
Moon
Length of Visible Light
Length of Day
Tomorrow will be .
, % of the Moon is Illuminated

Today's Extremes

State Highs State Lows

Community

WunderPhotos

Upload Photos

1,780,376 photos uploaded!

WunderBlogs® & News

Nearby

Air Quality

  Air Quality AQ Index Pollutant
Not available.

Snow Depth

Station Depth Elevation

Earthquake Activity

City Distance Mag. Time & Date
Minimum magnitude displayed is 2.5.

Coastal Water Temperatures

Place Temperature

Nearby Weather Stations